EW2142 Weather Reports


Display with metric or nautical units.
time (UTC)temp
F
wind
direction
speed
MPH
gust
MPH
rain 1hr
in
rain 24hr
in
rain mn
in
humidity
%
barometer
mb
20260902233003 56 314 1.0 12.0 0.00 0.01 0.00 62 1010.2
20260902232503 56 318 0.0 3.0 0.00 0.01 0.00 61 1010.3
20260902232003 56 304 0.0 4.0 0.00 0.01 0.00 61 1010.3
20260902231503 56 321 0.0 4.0 0.00 0.01 0.00 61 1010.3
20260902231003 57 320 0.0 4.0 0.00 0.01 0.00 61 1010.4
20260902230524 57 325 0.0 2.0 0.00 0.01 0.00 60 1010.4
20260902230003 57 330 0.0 2.0 0.00 0.01 0.00 60 1010.4
20260902225524 57 298 0.0 4.0 0.00 0.01 0.00 60 1010.4
20260902225003 57 299 0.0 7.0 0.00 0.01 0.00 62 1010.4
20260902224524 57 301 1.0 7.0 0.00 0.01 0.00 61 1010.5
20260902224002 57 240 0.0 4.0 0.00 0.01 0.00 61 1010.5
20260902223503 57 237 0.0 6.0 0.00 0.01 0.00 61 1010.5
20260902223003 57 260 1.0 6.0 0.00 0.01 0.00 62 1010.5
20260902222502 57 217 0.0 3.0 0.00 0.01 0.00 61 1010.5
20260902222003 57 251 0.0 3.0 0.00 0.01 0.00 61 1010.5
20260902221503 57 319 1.0 4.0 0.00 0.01 0.00 61 1010.6
20260902221003 57 306 1.0 7.0 0.00 0.01 0.00 61 1010.6
20260902220503 57 294 0.0 7.0 0.00 0.01 0.00 60 1010.6
20260902220026 57 320 0.0 3.0 0.00 0.01 0.00 58 1010.6
20260902215503 57 306 0.0 3.0 0.00 0.01 0.01 60 1010.6
20260902215002 57 315 1.0 6.0 0.00 0.01 0.01 59 1010.7
20260902214524 57 318 1.0 6.0 0.00 0.01 0.01 59 1010.6
20260902214003 57 315 0.0 5.0 0.00 0.01 0.01 58 1010.6
20260902213502 57 150 0.0 2.0 0.00 0.01 0.01 57 1010.5
20260902213003 57 181 0.0 2.0 0.00 0.01 0.01 59 1010.5
20260902212503 57 291 0.0 2.0 0.00 0.01 0.01 60 1010.6
20260902212003 58 311 0.0 4.0 0.00 0.01 0.01 59 1010.6
20260902211503 58 303 0.0 5.0 0.00 0.01 0.01 59 1010.6
20260902211024 58 259 0.0 5.0 0.00 0.01 0.01 59 1010.6
20260902210524 58 332 0.0 3.0 0.00 0.01 0.01 58 1010.6
20260902210024 58 310 0.0 3.0 0.00 0.01 0.01 59 1010.6
20260902205503 58 266 0.0 2.0 0.00 0.01 0.01 59 1010.7
20260902205024 58 305 0.0 3.0 0.00 0.01 0.01 59 1010.6
20260902204502 58 317 0.0 3.0 0.00 0.01 0.01 58 1010.6
20260902204003 58 316 1.0 5.0 0.00 0.01 0.01 58 1010.6
20260902203524 58 314 1.0 5.0 0.00 0.01 0.01 59 1010.7
20260902203002 58 310 0.0 4.0 0.00 0.01 0.01 56 1010.7
20260902202503 58 307 0.0 4.0 0.00 0.01 0.01 55 1010.7
20260902202024 58 274 0.0 1.0 0.00 0.01 0.01 53 1010.7
20260902201503 58 229 0.0 1.0 0.00 0.01 0.01 52 1010.7
20260902201003 58 298 0.0 5.0 0.00 0.01 0.01 54 1010.7
20260902200503 58 300 0.0 5.0 0.00 0.01 0.01 56 1010.6
20260902200003 58 55 0.0 2.0 0.00 0.01 0.01 54 1010.7
20260902195503 58 308 0.0 3.0 0.00 0.01 0.01 54 1010.7
20260902195003 58 286 0.0 3.0 0.00 0.01 0.01 54 1010.8
20260902194502 58 296 0.0 3.0 0.00 0.01 0.01 53 1010.8
20260902194024 58 4 0.0 3.0 0.00 0.01 0.01 54 1010.8
20260902193503 58 235 0.0 1.0 0.00 0.01 0.01 54 1010.7
20260902193003 58 170 0.0 2.0 0.00 0.01 0.01 54 1010.6
20260902192503 58 321 0.0 5.0 0.00 0.01 0.01 52 1010.6
20260902192004 58 318 0.0 5.0 0.00 0.01 0.01 53 1010.6
20260902191503 58 296 0.0 3.0 0.00 0.01 0.01 53 1010.5
20260902191003 58 303 0.0 3.0 0.00 0.01 0.01 52 1010.5
20260902190503 58 272 0.0 3.0 0.00 0.01 0.01 52 1010.5
20260902190003 58 252 0.0 3.0 0.00 0.01 0.01 53 1010.5
20260902185503 58 257 0.0 2.0 0.00 0.01 0.01 53 1010.4
20260902185003 58 207 0.0 1.0 0.00 0.01 0.01 51 1010.5
20260902184523 59 282 0.0 2.0 0.00 0.01 0.01 51 1010.5
20260902184003 59 286 0.0 2.0 0.00 0.01 0.01 51 1010.5
20260902183524 59 291 0.0 1.0 0.00 0.01 0.01 51 1010.4
20260902183002 59 307 0.0 2.0 0.00 0.01 0.01 50 1010.3
20260902182503 59 310 0.0 2.0 0.00 0.01 0.01 51 1010.4
20260902182003 59 307 0.0 1.0 0.00 0.01 0.01 51 1010.4
20260902181503 59 315 0.0 4.0 0.00 0.01 0.01 51 1010.3
20260902181003 59 306 0.0 4.0 0.00 0.01 0.01 51 1010.4
20260902180503 59 243 0.0 2.0 0.00 0.01 0.01 51 1010.4
20260902180006 59 320 0.0 2.0 0.00 0.01 0.01 52 1010.3
20260902175503 60 304 0.0 4.0 0.00 0.01 0.01 54 1010.3
20260902175003 60 307 1.0 8.0 0.00 0.01 0.01 54 1010.3
20260902174502 60 315 1.0 8.0 0.00 0.01 0.01 55 1010.4
20260902174003 60 316 0.0 6.0 0.00 0.01 0.01 56 1010.4
20260902173502 60 317 1.0 7.0 0.00 0.01 0.01 55 1010.4
20260902173024 60 317 1.0 7.0 0.00 0.01 0.01 55 1010.4
20260902172503 61 316 0.0 6.0 0.00 0.01 0.01 55 1010.4
20260902172003 61 312 0.0 6.0 0.00 0.01 0.01 56 1010.4
20260902171503 61 323 0.0 4.0 0.00 0.01 0.01 54 1010.4
20260902171024 61 318 0.0 5.0 0.00 0.01 0.01 54 1010.4
20260902170503 61 317 1.0 5.0 0.00 0.01 0.01 55 1010.4
20260902170003 61 326 1.0 4.0 0.00 0.01 0.01 54 1010.4
20260902165503 61 324 1.0 4.0 0.00 0.01 0.01 53 1010.5
20260902165024 62 308 1.0 10.0 0.00 0.01 0.01 54 1010.5
20260902164502 62 300 1.0 10.0 0.00 0.01 0.01 55 1010.5
20260902164024 62 289 0.0 7.0 0.00 0.01 0.01 57 1010.4
20260902163503 62 303 0.0 5.0 0.00 0.01 0.01 56 1010.4
20260902163003 62 299 0.0 5.0 0.00 0.01 0.01 57 1010.5
20260902162503 62 304 1.0 7.0 0.00 0.01 0.01 57 1010.5
20260902162003 63 305 0.0 7.0 0.00 0.01 0.01 57 1010.5
20260902161503 63 295 0.0 2.0 0.00 0.01 0.01 57 1010.5
20260902161003 63 302 1.0 7.0 0.00 0.01 0.01 57 1010.5
20260902160524 63 299 1.0 7.0 0.00 0.01 0.01 59 1010.5
20260902160024 63 295 1.0 7.0 0.00 0.01 0.01 59 1010.6
20260902155503 63 307 1.0 8.0 0.00 0.01 0.01 59 1010.5
20260902155003 63 310 1.0 8.0 0.00 0.01 0.01 62 1010.5
20260902154503 63 307 1.0 10.0 0.00 0.01 0.01 61 1010.5
20260902154002 63 304 2.0 10.0 0.00 0.01 0.01 62 1010.4
20260902153503 64 305 1.0 8.0 0.00 0.01 0.01 62 1010.4
20260902153003 64 308 1.0 4.0 0.00 0.01 0.01 62 1010.4
20260902152502 64 267 0.0 4.0 0.00 0.01 0.01 62 1010.4
20260902152003 65 284 0.0 4.0 0.00 0.01 0.01 62 1010.4
20260902151503 65 276 1.0 4.0 0.00 0.01 0.01 62 1010.4
20260902151003 65 270 0.0 4.0 0.00 0.01 0.01 62 1010.4
20260902150503 65 301 1.0 5.0 0.00 0.01 0.01 62 1010.4
20260902150003 65 283 1.0 7.0 0.00 0.01 0.01 60 1010.4
20260902145503 65 169 1.0 7.0 0.00 0.01 0.01 59 1010.5
20260902145003 65 305 1.0 10.0 0.00 0.01 0.01 60 1010.5
20260902144502 65 312 1.0 10.0 0.00 0.01 0.01 58 1010.6
20260902144002 66 316 1.0 7.0 0.00 0.01 0.01 62 1010.5
20260902143503 66 310 1.0 7.0 0.00 0.01 0.01 62 1010.3
20260902143003 66 291 1.0 7.0 0.00 0.01 0.01 62 1010.4
20260902142502 66 296 1.0 7.0 0.00 0.01 0.01 62 1010.4
20260902142003 66 299 0.0 4.0 0.00 0.01 0.01 62 1010.3
20260902141503 66 299 0.0 4.0 0.00 0.01 0.01 62 1010.3
20260902141003 66 291 0.0 4.0 0.00 0.01 0.01 61 1010.3
20260902140503 66 283 0.0 3.0 0.00 0.01 0.01 62 1010.2
20260902140003 66 288 1.0 5.0 0.00 0.01 0.01 60 1010.2
20260902135503 66 302 1.0 5.0 0.00 0.01 0.01 61 1010.3
20260902135024 66 309 1.0 5.0 0.00 0.01 0.01 62 1010.3
20260902134503 66 309 1.0 7.0 0.00 0.01 0.01 62 1010.2
20260902134003 66 312 1.0 7.0 0.00 0.01 0.01 62 1010.2
20260902133523 66 311 1.0 5.0 0.00 0.01 0.01 62 1010.2
20260902133003 66 309 1.0 6.0 0.00 0.01 0.01 62 1010.2
20260902132503 66 304 1.0 6.0 0.00 0.01 0.01 62 1010.3
20260902132003 68 267 0.0 2.0 0.00 0.01 0.01 61 1010.3
20260902131524 68 317 0.0 6.0 0.00 0.01 0.01 62 1010.2
20260902131003 68 320 1.0 6.0 0.00 0.01 0.01 62 1010.3
20260902130503 68 313 0.0 5.0 0.00 0.01 0.01 62 1010.3
20260902130024 68 310 0.0 2.0 0.00 0.01 0.01 62 1010.4
20260902125503 68 315 0.0 2.0 0.00 0.01 0.01 60 1010.4
20260902125003 69 314 1.0 5.0 0.00 0.01 0.01 60 1010.4
20260902124503 69 314 1.0 5.0 0.00 0.01 0.01 58 1010.4
20260902124003 69 301 0.0 1.0 0.00 0.01 0.01 60 1010.4
20260902123503 69 297 0.0 3.0 0.00 0.01 0.01 58 1010.4
20260902123024 69 297 1.0 3.0 0.00 0.01 0.01 55 1010.4
20260902122503 69 296 0.0 3.0 0.00 0.01 0.01 57 1010.5
20260902122003 69 303 1.0 6.0 0.00 0.01 0.01 57 1010.5
20260902121502 68 290 0.0 6.0 0.00 0.01 0.01 59 1010.6
20260902121003 68 302 1.0 4.0 0.00 0.01 0.01 58 1010.6
20260902120524 68 318 1.0 4.0 0.00 0.01 0.01 61 1010.5
20260902120003 68 314 0.0 3.0 0.00 0.01 0.01 59 1010.6
20260902115503 68 305 0.0 3.0 0.00 0.01 0.01 57 1010.7
20260902115003 68 309 0.0 2.0 0.00 0.01 0.01 57 1010.6
20260902114503 67 295 0.0 3.0 0.00 0.01 0.01 60 1010.6
20260902114024 66 309 1.0 4.0 0.00 0.01 0.01 59 1010.6
20260902113503 66 309 0.0 4.0 0.00 0.01 0.01 57 1010.8
20260902113023 66 304 0.0 3.0 0.00 0.01 0.01 59 1010.8
20260902112503 66 308 0.0 3.0 0.00 0.01 0.01 56 1010.8
20260902112003 66 323 0.0 4.0 0.00 0.01 0.01 58 1010.8
20260902111502 66 312 1.0 4.0 0.00 0.01 0.01 55 1010.8
20260902111024 66 306 0.0 4.0 0.00 0.01 0.01 53 1010.9
20260902110503 66 313 0.0 1.0 0.00 0.01 0.01 58 1010.8
20260902110005 66 78 0.0 2.0 0.00 0.01 0.01 59 1010.8
20260902105503 66 320 0.0 3.0 0.00 0.01 0.01 61 1010.9
20260902105024 66 306 0.0 3.0 0.00 0.01 0.01 59 1010.9
20260902104504 66 299 0.0 3.0 0.00 0.01 0.01 61 1010.8
20260902104003 65 289 0.0 2.0 0.00 0.01 0.01 58 1010.9
20260902103502 66 298 0.0 2.0 0.00 0.01 0.01 59 1010.9
20260902103003 66 312 0.0 2.0 0.00 0.01 0.01 59 1010.9
20260902102503 66 305 1.0 6.0 0.00 0.01 0.01 59 1010.9
20260902102002 66 297 1.0 6.0 0.00 0.01 0.01 59 1010.8
20260902101503 66 290 0.0 6.0 0.00 0.01 0.01 58 1010.9
20260902101003 66 305 1.0 6.0 0.00 0.01 0.01 59 1010.8
20260902100503 66 291 0.0 3.0 0.00 0.01 0.01 60 1010.9
20260902100003 66 262 0.0 2.0 0.00 0.01 0.01 59 1010.9
20260902095503 66 313 0.0 5.0 0.00 0.01 0.01 60 1010.9
20260902095003 65 301 0.0 5.0 0.00 0.01 0.01 62 1011.0
20260902094503 65 310 1.0 5.0 0.00 0.01 0.01 60 1011.0
20260902094023 65 326 1.0 5.0 0.00 0.01 0.01 60 1010.9
20260902093503 66 286 0.0 2.0 0.00 0.01 0.01 61 1010.9
20260902093003 66 289 0.0 4.0 0.00 0.01 0.01 60 1010.9
20260902092503 66 289 1.0 5.0 0.00 0.01 0.01 60 1011.0
20260902092003 65 286 0.0 5.0 0.00 0.01 0.01 59 1010.9
20260902091503 66 306 1.0 7.0 0.00 0.01 0.01 61 1010.8
20260902091003 66 305 0.0 7.0 0.00 0.01 0.01 61 1010.8
20260902090525 66 297 0.0 4.0 0.00 0.01 0.01 60 1010.8
20260902090003 65 311 1.0 5.0 0.00 0.01 0.01 62 1010.7
20260902085503 65 297 1.0 5.0 0.00 0.01 0.01 61 1010.7
20260902085003 65 218 0.0 3.0 0.00 0.01 0.01 60 1010.8
20260902084503 64 307 1.0 6.0 0.00 0.01 0.01 61 1010.7
20260902084024 64 305 1.0 6.0 0.00 0.01 0.01 61 1010.7
20260902083503 64 300 1.0 6.0 0.00 0.01 0.01 62 1010.6
20260902083003 64 295 1.0 4.0 0.00 0.01 0.01 61 1010.6
20260902082503 64 294 0.0 4.0 0.00 0.01 0.01 62 1010.7
20260902082003 65 297 0.0 3.0 0.00 0.01 0.01 62 1010.5
20260902081503 65 302 0.0 3.0 0.00 0.01 0.01 61 1010.5
20260902081024 64 323 0.0 6.0 0.00 0.01 0.01 61 1010.5
20260902080503 64 312 0.0 6.0 0.00 0.01 0.01 57 1010.4
20260902080003 64 308 0.0 4.0 0.00 0.01 0.01 56 1010.4
20260902075503 64 272 0.0 2.0 0.00 0.01 0.01 56 1010.4
20260902075003 64 264 0.0 3.0 0.00 0.01 0.01 50 1010.4
20260902074503 63 272 0.0 3.0 0.00 0.01 0.01 49 1010.3
20260902074003 63 303 1.0 7.0 0.00 0.01 0.01 34 1010.3
20260902073503 62 304 1.0 7.0 0.00 0.01 0.01 33 1010.2
20260902073024 61 289 0.0 3.0 0.00 0.01 0.01 16 1010.1
20260902072503 60 286 0.0 5.0 0.00 0.01 0.01 4 1010.1
20260902072002 60 278 1.0 5.0 0.00 0.01 0.01 4 1010.1
20260902071503 60 293 1.0 3.0 0.00 0.01 0.01 1 1010.0
20260902071003 60 292 1.0 3.0 0.00 0.01 0.01 1 1010.0
20260902070503 60 278 0.0 3.0 0.00 0.01 0.01 1 1010.0
20260902070003 60 287 0.0 4.0 0.00 0.01 0.01 1 1009.9
20260902065524 60 288 0.0 4.0 0.00 0.01 0.01 1 1009.8
20260902065003 60 313 0.0 2.0 0.00 0.01 0.01 1 1009.9
20260902064503 60 301 0.0 1.0 0.00 0.01 0.01 1 1009.8
20260902064003 60 292 0.0 2.0 0.00 0.01 0.01 1 1009.8
20260902063523 60 312 0.0 4.0 0.00 0.01 0.01 1 1009.8
20260902063003 60 293 0.0 4.0 0.00 0.01 0.01 1 1009.8
20260902062523 59 259 0.0 4.0 0.00 0.01 0.01 1 1009.8
20260902062003 59 237 0.0 4.0 0.00 0.01 0.01 1 1009.7
20260902061545 59 253 0.0 4.0 0.00 0.01 0.01 1 1009.7
20260902061024 59 0 0.0 0.0 0.00 0.01 0.01 1 1009.7
20260902060503 58 0 0.0 1.0 0.00 0.01 0.01 1 1009.8
20260902060003 58 0 0.0 1.0 0.00 0.01 0.01 1 1009.7
20260902055503 58 0 0.0 1.0 0.00 0.01 0.01 1 1009.7
20260902055003 58 0 0.0 1.0 0.00 0.01 0.01 1 1009.7
20260902054503 58 0 0.0 1.0 0.00 0.01 0.01 1 1009.7
20260902054003 58 0 0.0 1.0 0.00 0.01 0.01 1 1009.7
20260902053502 58 0 0.0 1.0 0.00 0.01 0.01 1 1009.6
20260902053003 58 0 0.0 1.0 0.00 0.01 0.01 1 1009.6
20260902052503 58 0 0.0 1.0 0.00 0.01 0.01 1 1009.7
20260902052002 58 0 0.0 1.0 0.00 0.01 0.01 1 1009.7
20260902051503 58 0 0.0 1.0 0.00 0.01 0.01 1 1009.7
20260902051003 58 0 0.0 1.0 0.00 0.01 0.01 1 1009.6
20260902050503 58 0 0.0 1.0 0.00 0.01 0.01 1 1009.6
20260902050005 58 0 0.0 1.0 0.00 0.01 0.01 1 1009.7
20260902045503 58 0 0.0 1.0 0.01 0.01 0.01 1 1009.6
20260902045024 58 0 0.0 1.0 0.01 0.01 0.01 1 1009.6
20260902044524 58 0 0.0 1.0 0.01 0.01 0.01 1 1009.6
20260902044003 58 0 0.0 1.0 0.01 0.01 0.01 1 1009.6
20260902043502 58 0 0.0 1.0 0.01 0.01 0.01 1 1009.5
20260902043003 58 0 0.0 1.0 0.01 0.01 0.01 1 1009.4
20260902042502 58 0 0.0 1.0 0.01 0.01 0.01 1 1009.5
20260902042003 58 0 0.0 1.0 0.01 0.01 0.01 1 1009.5
20260902041503 58 0 0.0 1.0 0.01 0.01 0.01 1 1009.6
20260902041002 58 298 0.0 1.0 0.01 0.01 0.01 1 1009.6
20260902040503 58 298 0.0 1.0 0.01 0.01 0.01 1 1009.6
20260902040024 58 258 0.0 1.0 0.01 0.01 0.01 1 1009.6
20260902035503 58 243 0.0 1.0 0.00 0.00 0.00 1 1009.6
20260902035003 58 236 0.0 1.0 0.00 0.00 0.00 1 1009.7
20260902034503 58 236 0.0 1.0 0.00 0.00 0.00 1 1009.7
20260902034003 58 0 0.0 0.0 0.00 0.00 0.00 1 1009.7
20260902033503 58 0 0.0 0.0 0.00 0.00 0.00 1 1009.7
20260902033003 58 0 0.0 0.0 0.00 0.00 0.00 1 1009.7
20260902032524 58 0 0.0 0.0 0.00 0.00 0.00 1 1009.7
20260902032003 58 0 0.0 0.0 0.00 0.00 0.00 1 1009.7
20260902031503 58 0 0.0 0.0 0.00 0.00 0.00 1 1009.8
20260902031003 58 0 0.0 0.0 0.00 0.00 0.00 1 1009.8
20260902030503 58 0 0.0 0.0 0.00 0.00 0.00 1 1009.9
20260902030003 58 0 0.0 0.0 0.00 0.00 0.00 1 1009.9
20260902025524 58 148 0.0 1.0 0.00 0.00 0.00 1 1010.0
20260902025024 58 148 0.0 1.0 0.00 0.00 0.00 1 1010.0
20260902024503 58 0 0.0 0.0 0.00 0.00 0.00 1 1010.0
20260902024003 58 0 0.0 0.0 0.00 0.00 0.00 1 1010.0
20260902023503 58 0 0.0 0.0 0.00 0.00 0.00 1 1010.1
20260902023003 58 0 0.0 0.0 0.00 0.00 0.00 1 1010.2
20260902022502 58 0 0.0 0.0 0.00 0.00 0.00 1 1010.1
20260902022003 58 0 0.0 0.0 0.00 0.00 0.00 1 1010.2
20260902021503 58 0 0.0 0.0 0.00 0.00 0.00 1 1010.3
20260902021003 58 0 0.0 0.0 0.00 0.00 0.00 1 1010.3
20260902020503 58 0 0.0 0.0 0.00 0.00 0.00 1 1010.3
20260902020003 58 0 0.0 0.0 0.00 0.00 0.00 1 1010.3
20260902015503 58 0 0.0 0.0 0.00 0.00 0.00 1 1010.2
20260902015003 58 123 0.0 1.0 0.00 0.00 0.00 1 1010.3
20260902014524 58 123 0.0 1.0 0.00 0.00 0.00 1 1010.4
20260902014003 58 0 0.0 0.0 0.00 0.00 0.00 1 1010.4
20260902013503 58 0 0.0 0.0 0.00 0.00 0.00 1 1010.5
20260902013024 58 123 0.0 1.0 0.00 0.00 0.00 1 1010.5
20260902012503 58 123 0.0 1.0 0.00 0.00 0.00 1 1010.6
20260902012003 58 0 0.0 0.0 0.00 0.00 0.00 1 1010.5
20260902011503 58 0 0.0 0.0 0.00 0.00 0.00 1 1010.6
20260902011024 58 0 0.0 0.0 0.00 0.00 0.00 1 1010.6
20260902010503 58 0 0.0 0.0 0.00 0.00 0.00 1 1010.7
20260902010003 58 0 0.0 0.0 0.00 0.00 0.00 1 1010.7
20260902005503 58 0 0.0 0.0 0.00 0.00 0.00 1 1010.8
20260902005024 58 0 0.0 0.0 0.00 0.00 0.00 1 1010.7
20260902004503 58 0 0.0 0.0 0.00 0.00 0.00 1 1010.8
20260902004003 58 103 0.0 1.0 0.00 0.00 0.00 1 1010.8
20260902003524 58 103 0.0 1.0 0.00 0.00 0.00 1 1010.9
20260902003002 58 153 0.0 1.0 0.00 0.00 0.00 1 1010.9
20260902002524 58 153 0.0 1.0 0.00 0.00 0.00 1 1010.9
20260902002023 58 0 0.0 0.0 0.00 0.00 0.00 1 1010.9
20260902001502 57 0 0.0 0.0 0.00 0.03 0.00 1 1010.9
20260902001003 57 155 0.0 1.0 0.00 0.04 0.00 1 1011.0
20260902000524 57 155 0.0 1.0 0.00 0.07 0.00 1 1011.0
20260902000003 57 0 0.0 0.0 0.00 0.13 0.00 1 1011.0
20260901235503 57 0 0.0 0.0 0.00 0.13 0.00 1 1011.0
20260901235003 57 0 0.0 0.0 0.00 0.13 0.00 1 1011.0
20260901234503 57 251 0.0 1.0 0.00 0.13 0.00 1 1010.9
20260901234003 57 251 0.0 1.0 0.00 0.13 0.00 1 1011.0
20260901233503 57 0 0.0 0.0 0.00 0.13 0.00 1 1011.0